Theta_e
309 308 308 316 319 319 319 319 324 327 327 324 320 331 334 334 337 340 335 338 339 337 337 332 330 337 339 338 336 334 333 323 316 314 314 315 317 322 332 333 329 318 309 308 307 307 307 307 307
309 308 311 316 316 317 318 320 321 322 316 318 327 329 335 336 342 342 342 337 339 337 339 339 336 338 338 339 331 331 321 317 313 312 311 311 311 313 313 311 309 308 307 307 307 307 307 307 307
309 309 315 316 314 315 317 318 317 315 313 316 320 323 339 344 343 344 342 339 338 338 340 346 340 336 337 330 323 317 315 313 310 309 309 308 308 308 308 308 307 307 307 307 306 306 306 306 308
311 312 311 314 314 314 315 316 315 316 315 315 317 321 331 338 338 340 339 339 338 339 340 344 342 337 338 332 325 316 313 310 309 309 309 309 308 308 307 307 307 306 306 306 305 305 306 307 321
310 311 312 313 313 314 313 314 313 315 315 315 316 323 324 333 331 339 342 339 339 340 340 341 342 338 339 335 328 316 311 309 309 309 309 308 308 308 307 306 306 306 305 305 305 305 306 315 315
313 311 312 312 312 312 312 313 313 314 314 314 315 317 327 328 323 334 340 342 340 344 341 341 341 339 339 336 330 316 310 309 309 308 309 309 308 307 306 306 305 305 305 305 305 305 307 309 311
314 312 312 311 312 312 313 314 314 314 314 314 313 317 323 328 317 327 339 340 339 343 342 340 340 340 339 337 330 317 309 309 309 309 308 308 306 306 305 305 306 306 305 305 305 306 308 309 311
314 313 313 313 312 312 313 314 313 313 314 313 314 316 320 318 314 323 335 340 337 338 342 343 340 340 338 337 328 318 310 311 311 310 308 307 306 305 305 306 306 306 305 305 305 307 308 309 309
312 313 313 313 313 313 313 314 314 314 313 313 313 313 313 313 313 315 333 340 340 338 339 338 339 339 338 337 328 320 312 315 315 313 307 306 306 306 306 308 306 306 305 305 305 306 307 308 308
314 313 312 313 313 314 314 314 314 314 314 314 313 313 313 313 313 314 316 333 339 338 339 336 340 338 338 336 330 326 320 322 322 315 307 310 311 308 310 307 306 306 306 306 305 306 307 309 308
314 314 314 313 313 314 315 314 314 314 315 314 314 313 313 314 314 314 314 314 331 338 340 337 339 337 338 335 328 327 323 324 322 315 308 308 306 306 307 306 306 306 306 306 305 305 306 308 310
315 313 313 314 314 314 314 312 313 312 313 313 313 313 313 314 314 314 313 313 317 334 337 337 339 337 338 336 329 326 320 322 318 311 307 305 306 306 307 308 307 306 306 306 306 306 306 306 309
315 313 313 313 313 312 312 312 312 311 311 312 313 312 312 313 314 314 313 312 312 316 332 337 338 338 337 336 333 324 320 320 312 308 306 305 305 306 306 306 306 306 306 306 306 306 306 306 308
313 313 313 312 312 312 312 311 311 311 311 311 312 311 310 311 310 310 311 313 315 313 323 327 336 338 338 336 334 326 319 317 312 307 305 305 305 306 306 306 306 306 306 306 306 306 306 306 306
313 312 311 311 312 311 310 313 311 311 311 310 310 310 310 309 310 309 310 311 314 317 314 321 329 337 337 337 335 329 314 311 310 307 305 305 305 306 306 306 306 306 306 306 306 306 306 306 306
311 311 313 311 310 310 310 313 312 311 310 310 310 310 310 310 309 309 309 309 310 314 319 325 331 333 335 337 335 326 315 312 309 306 304 305 305 305 305 306 306 306 306 306 306 306 306 306 305
312 314 313 313 311 310 311 313 313 311 310 310 310 310 310 310 309 309 309 309 308 312 318 321 327 330 333 329 336 325 316 311 308 305 304 305 305 305 305 306 306 306 306 306 306 306 306 306 305
314 314 312 313 312 310 312 313 312 311 311 311 311 310 310 310 310 309 309 309 308 311 312 321 316 327 329 329 327 325 315 311 307 305 305 305 305 305 305 306 306 306 306 306 306 306 305 305 304
311 312 313 312 310 311 313 313 312 311 311 311 311 311 311 311 311 310 309 309 308 310 312 314 317 317 323 325 321 320 316 311 306 306 305 305 305 305 305 306 306 306 306 306 305 305 305 304 304
312 313 313 311 309 310 313 312 312 311 311 310 310 310 311 311 312 313 313 309 309 309 312 321 319 322 327 325 327 322 316 309 306 308 307 305 305 305 306 306 306 306 306 305 305 304 303 304 304
312 312 311 312 311 311 310 313 312 311 309 310 311 311 311 311 312 315 315 314 311 309 313 317 325 322 328 326 324 320 316 307 310 309 307 306 305 306 306 307 307 307 306 305 305 304 303 304 304
312 310 311 312 311 315 310 316 312 311 312 312 312 311 311 312 314 315 315 316 316 311 313 320 324 322 326 325 323 322 319 307 310 309 307 307 306 306 308 308 308 307 306 305 305 304 303 303 303
312 310 311 310 310 310 311 313 312 311 313 312 312 311 311 312 314 315 315 314 315 311 316 321 322 325 325 324 321 320 313 307 310 308 308 307 306 307 308 308 308 308 306 305 305 304 303 302 301
310 311 310 308 309 315 311 312 312 312 311 311 311 310 310 312 314 313 314 313 309 311 319 320 320 323 322 320 320 318 315 309 310 308 308 307 307 308 309 309 309 308 306 305 304 303 302 301 300
311 313 316 315 317 313 310 312 313 311 311 310 311 309 310 312 314 313 315 316 314 318 320 320 321 320 319 319 318 315 312 308 310 308 307 307 308 309 310 310 309 308 306 305 304 302 301 300 299
312 311 315 312 314 313 310 313 311 311 310 309 309 309 309 312 314 313 313 316 318 318 317 321 319 319 320 319 315 311 311 309 310 309 308 308 309 310 310 310 309 307 306 305 304 301 299 298 298
311 313 310 311 311 312 312 311 310 310 310 310 310 309 308 312 313 313 313 315 316 317 318 318 317 320 319 319 318 314 311 311 310 309 309 309 310 310 311 309 308 306 305 305 303 300 300 301 302
311 310 313 311 313 312 311 311 312 310 310 310 310 307 307 312 313 313 313 313 315 316 316 316 318 318 317 318 320 317 315 311 310 309 309 309 310 311 310 309 306 305 305 305 305 306 304 304 304
311 312 311 311 311 312 312 311 310 309 309 309 307 305 306 312 312 313 314 313 314 314 315 317 317 318 317 316 317 317 313 311 310 310 309 311 310 311 309 307 308 307 305 307 306 306 304 299 295
307 309 310 310 311 311 310 310 309 309 307 306 306 306 306 311 311 312 314 314 314 314 314 315 316 317 317 316 314 314 312 311 310 310 310 311 311 310 308 307 308 308 308 307 303 299 295 294 295
Wind_Speed
4 3 5 6 5 5 12 6 4 3 4 3 9 6 5 7 4 3 9 8 12 26 29 29 28 26 25 22 21 20 17 15 14 16 17 16 15 14 14 13 12 11 9 7 4 4 5 7 8
1 3 6 3 6 9 10 3 6 3 9 12 6 5 7 2 5 6 6 7 15 26 28 28 29 28 25 22 21 20 18 16 15 15 15 15 14 14 13 12 10 9 7 5 5 5 7 9 10
1 7 5 4 5 12 8 3 4 8 4 11 4 3 5 5 8 7 8 7 17 25 26 27 28 29 26 22 19 18 18 17 16 16 15 14 14 13 12 10 9 8 7 7 7 7 8 10 11
3 2 1 6 9 3 2 3 7 8 1 9 10 2 2 9 11 14 13 8 20 24 25 28 28 28 26 22 17 16 17 17 16 16 15 14 13 12 11 11 10 9 8 8 8 9 10 11 15
3 2 4 4 6 2 2 6 4 6 5 8 10 4 6 5 14 12 8 9 21 26 25 28 30 28 26 22 17 16 17 17 16 16 16 14 13 12 12 12 11 10 10 10 10 12 13 15 14
1 1 4 7 6 2 1 8 3 7 5 8 10 11 4 4 18 13 6 8 20 28 27 26 30 28 27 23 18 17 17 17 17 17 16 15 13 14 14 13 12 11 12 12 12 14 14 14 15
1 2 1 1 2 3 1 8 4 6 9 3 10 7 6 6 18 15 7 7 21 25 25 28 30 30 27 24 19 18 18 17 18 17 16 15 15 15 14 14 13 13 13 13 13 14 15 15 14
2 1 3 0 1 1 2 10 6 7 8 9 3 4 4 12 19 18 6 9 18 24 26 28 32 31 28 25 21 19 18 18 18 18 17 16 16 16 15 15 14 14 13 13 14 15 15 15 13
2 2 1 1 2 3 6 8 8 9 15 11 9 13 15 18 17 14 7 12 20 24 28 31 33 32 29 25 22 20 20 19 19 19 17 17 17 17 16 16 15 15 14 14 15 15 15 14 13
3 1 2 0 3 8 13 12 16 11 15 18 17 13 15 18 15 13 12 13 22 26 29 33 36 34 31 27 24 20 22 21 19 20 20 19 19 18 18 17 16 15 14 14 15 14 15 13 13
3 2 0 1 5 9 12 17 13 15 12 11 15 18 17 18 16 14 14 14 18 29 33 33 37 35 34 29 25 21 27 20 21 21 22 21 21 20 18 18 16 15 14 15 15 15 14 13 13
2 1 3 3 5 10 14 17 14 20 29 21 19 19 17 16 18 15 16 17 17 21 34 38 41 39 37 32 26 22 31 23 22 24 24 24 23 23 21 19 18 17 17 16 16 15 15 14 13
2 4 6 10 14 15 12 14 18 27 26 23 16 12 18 16 17 16 17 21 19 21 23 40 43 40 42 36 31 26 27 24 26 27 26 25 24 24 22 20 18 17 17 16 15 15 15 14 14
9 11 13 8 8 7 10 13 9 9 7 13 14 19 22 21 20 23 21 20 20 21 26 27 44 45 45 40 36 32 27 25 28 28 27 25 24 23 21 20 19 18 17 17 16 16 16 15 14
6 7 5 1 5 5 14 12 10 14 10 16 26 26 24 24 27 26 24 23 19 20 20 28 34 50 47 44 39 35 32 31 30 28 27 26 24 22 20 20 20 19 18 18 18 17 17 16 15
4 3 7 2 4 1 8 11 11 14 23 26 28 26 25 25 25 23 24 25 25 20 19 23 30 45 51 50 42 36 34 33 31 30 28 27 25 22 21 20 19 18 19 19 18 18 18 17 15
2 6 9 7 5 5 3 21 17 26 18 19 21 23 22 22 20 21 23 26 26 25 20 21 27 35 48 49 41 39 36 35 32 31 29 28 25 22 20 19 19 18 18 18 19 19 17 17 17
10 7 9 12 10 10 17 20 19 19 13 14 15 15 16 17 18 18 18 21 26 26 25 21 26 28 38 38 40 45 38 35 33 33 31 29 25 22 20 18 18 19 18 18 18 18 19 17 17
7 10 15 15 6 15 13 19 18 17 11 11 14 16 17 18 18 17 17 19 24 26 26 23 29 31 35 37 32 36 26 35 33 32 30 28 25 23 21 19 17 17 17 17 18 18 18 20 18
7 12 13 8 1 12 15 21 12 6 4 8 13 17 20 22 20 18 15 15 20 24 25 22 27 28 32 45 36 40 28 18 33 29 26 25 24 22 20 18 17 17 17 17 17 18 20 21 22
8 9 11 12 19 6 12 8 6 2 7 6 11 13 17 20 23 23 19 16 18 24 22 26 29 30 31 39 37 43 40 29 25 27 26 23 23 21 19 17 16 16 15 16 17 17 17 20 20
9 1 9 14 13 5 8 6 9 5 9 7 17 21 22 25 23 23 23 20 17 23 21 24 28 27 36 39 39 44 41 40 28 29 28 25 23 21 19 17 15 14 14 14 15 16 15 15 17
5 8 12 7 5 8 2 4 5 3 7 13 14 21 24 24 26 28 26 23 19 20 21 24 30 30 31 33 43 42 45 43 25 27 27 25 22 20 18 16 15 13 13 13 14 15 15 13 13
11 8 5 2 2 3 3 5 8 4 9 10 13 21 24 26 28 26 23 17 8 15 22 25 28 29 32 34 40 42 46 44 32 29 26 25 23 21 18 16 15 13 12 11 11 12 12 12 11
6 7 3 3 2 4 4 8 11 12 7 8 11 20 24 24 25 27 21 14 1 14 21 23 23 27 31 38 37 41 45 41 32 31 29 29 26 23 21 17 15 13 12 11 10 10 10 10 8
4 5 2 5 6 11 8 6 4 7 10 11 9 17 24 24 23 26 19 12 3 13 18 22 23 28 33 40 41 44 41 44 37 33 30 28 25 23 19 16 14 13 12 11 10 9 9 9 8
2 1 1 4 4 5 4 7 15 3 7 12 11 23 25 22 21 25 18 7 5 10 16 17 20 28 34 38 38 38 43 41 42 36 28 25 23 21 18 17 16 16 15 12 12 11 9 7 4
3 1 2 1 6 7 6 10 9 11 15 12 15 24 19 18 18 20 17 12 3 5 10 14 20 25 32 35 37 38 42 46 41 41 38 34 30 28 28 27 24 20 19 18 14 10 7 4 4
3 3 3 3 2 4 7 7 5 9 9 12 17 20 16 15 16 16 15 14 9 4 10 14 19 23 26 32 35 40 45 50 51 45 37 38 37 34 31 30 26 23 20 14 13 11 8 9 8
3 2 3 3 1 5 6 9 2 4 8 17 19 17 11 10 12 12 12 10 10 7 7 13 16 20 24 27 35 40 46 49 45 40 43 41 38 34 30 26 24 21 15 13 11 11 12 10 8
Wind_Direction
287 265 178 159 214 233 234 228 275 183 170 13 307 259 322 322 311 0 333 199 170 175 175 177 174 174 181 183 183 188 194 200 198 198 200 202 197 193 193 202 215 227 226 226 212 175 149 138 137
263 164 153 211 240 218 224 239 210 30 339 324 303 266 254 51 9 344 354 207 173 174 174 175 178 180 185 180 185 191 197 198 194 195 196 197 196 196 200 205 207 209 208 199 184 162 150 137 139
163 163 187 218 238 233 250 68 328 332 356 7 340 357 347 9 351 343 329 231 176 177 175 179 184 187 189 184 186 188 192 192 193 195 193 191 190 192 193 194 194 193 188 176 165 157 149 145 141
141 144 124 235 221 250 319 4 346 343 44 18 352 247 52 25 346 322 307 228 176 179 178 187 187 192 192 189 186 190 191 192 192 189 185 186 187 188 185 182 180 177 175 171 164 159 147 149 131
131 207 212 228 228 244 99 9 335 337 347 352 353 345 329 348 351 344 335 196 181 181 182 187 190 196 196 195 191 193 195 195 192 186 183 185 188 181 176 172 169 168 162 157 149 145 148 136 141
181 264 226 234 226 191 118 4 331 322 325 326 341 319 304 347 358 345 333 195 190 185 180 188 195 199 201 199 195 197 200 198 190 186 184 183 179 173 170 168 165 161 155 151 147 144 147 146 143
86 244 312 255 279 238 74 356 339 321 309 301 331 299 291 293 344 340 307 224 196 191 185 192 198 202 204 205 198 201 203 199 193 189 187 182 174 171 170 167 164 157 153 150 145 144 147 146 147
72 271 151 118 339 271 17 335 316 293 304 303 274 274 289 318 332 347 299 250 215 194 194 194 203 203 206 206 199 202 203 197 191 188 188 180 174 173 171 169 164 155 151 144 142 145 149 147 146
14 213 118 105 247 339 331 325 324 298 284 277 271 281 292 310 319 327 304 253 222 207 203 202 207 206 207 208 195 198 199 193 190 189 188 178 173 170 162 169 164 155 151 146 144 148 147 146 143
16 360 66 354 293 297 306 307 310 298 287 281 283 282 296 300 307 309 307 254 236 211 212 208 206 212 206 209 194 183 189 186 181 190 184 175 174 169 171 170 167 160 156 151 147 145 141 139 140
13 49 61 258 284 301 303 302 307 289 283 288 294 293 294 294 292 290 283 283 259 230 214 210 216 216 211 210 196 189 188 184 187 188 186 182 181 175 172 167 166 161 160 155 149 148 150 149 145
277 190 253 286 286 295 294 303 288 278 275 288 291 290 288 290 290 284 273 272 271 243 231 220 223 216 215 215 202 196 194 189 189 190 192 188 183 179 175 172 170 165 160 159 156 155 154 151 144
308 332 295 288 290 283 288 278 285 279 279 285 286 280 288 282 282 285 282 274 264 261 241 229 226 224 220 219 212 204 198 195 194 194 193 191 188 182 178 176 173 170 165 164 161 158 156 153 149
323 301 292 296 302 277 296 291 295 289 292 283 285 290 282 275 275 285 277 271 263 259 250 254 229 230 215 217 216 214 203 196 198 197 194 190 188 186 182 179 176 174 170 167 166 164 161 158 154
302 306 311 198 350 319 313 273 227 288 294 291 294 291 285 271 277 270 270 264 259 256 256 246 241 223 228 218 217 213 211 203 200 198 193 189 188 188 187 183 180 178 174 172 169 167 165 162 157
302 240 349 32 332 97 330 296 311 292 296 297 295 293 290 285 274 263 263 261 257 254 248 243 236 225 227 216 214 206 209 204 201 196 192 189 188 190 189 186 186 182 176 172 169 168 166 163 160
17 329 338 331 314 314 281 297 307 315 307 297 299 301 299 298 283 268 259 258 255 244 242 235 234 230 224 211 211 205 207 203 199 194 192 190 189 189 191 189 186 183 179 175 172 168 169 165 161
324 327 322 316 326 309 297 288 306 313 316 316 326 325 311 307 300 289 270 254 248 240 238 229 227 228 225 221 208 200 195 197 197 193 192 190 189 188 190 192 188 184 182 179 175 174 166 167 165
296 289 298 308 351 324 310 301 307 301 310 329 339 336 325 320 315 307 288 262 240 236 231 228 226 227 225 225 202 168 182 187 192 194 193 190 188 188 189 191 191 187 182 182 178 175 172 165 164
282 294 311 310 340 323 315 306 304 287 288 319 328 330 332 327 322 316 303 274 246 236 230 221 218 223 223 213 226 203 190 189 185 192 192 190 188 187 189 192 191 188 183 183 182 183 176 172 165
294 279 316 308 326 285 310 272 304 187 295 343 351 342 335 330 323 321 311 284 257 238 221 218 214 217 220 210 204 197 191 203 182 191 186 190 188 185 186 188 193 190 187 185 182 182 188 182 175
309 266 299 309 328 322 5 301 320 329 320 336 346 348 345 338 331 324 314 297 276 242 216 211 212 217 215 209 204 205 198 182 195 190 183 187 185 181 183 185 186 190 187 186 187 184 185 192 188
285 308 302 308 290 316 152 276 293 328 326 338 340 345 347 344 336 329 320 301 278 234 203 202 206 214 210 215 205 187 183 184 182 194 184 182 183 178 180 182 181 184 185 184 191 191 188 188 196
302 291 271 195 248 255 112 4 290 327 326 315 333 343 344 344 345 338 333 324 279 195 194 196 203 206 206 206 194 189 181 173 188 190 182 181 181 175 178 179 178 180 181 178 182 185 179 180 184
307 315 328 299 288 312 151 301 261 299 310 301 314 337 344 345 350 352 347 354 174 179 182 191 197 204 198 194 190 189 175 165 181 183 185 183 178 176 178 177 174 172 169 167 169 172 166 165 169
17 345 24 309 318 304 316 235 298 320 294 294 293 342 344 347 353 0 356 13 74 169 183 194 196 199 198 191 178 174 171 167 177 184 185 184 179 176 175 169 165 163 160 161 163 165 156 149 146
118 25 34 276 276 271 264 278 280 273 278 317 317 338 341 344 352 2 2 8 79 164 188 198 204 198 194 192 189 181 181 175 172 175 175 179 179 177 173 172 171 167 161 161 162 163 162 168 146
269 82 247 153 313 307 286 302 283 319 330 330 331 332 335 340 351 1 14 16 73 191 211 207 207 198 196 193 190 187 189 177 169 168 173 183 186 184 181 178 171 169 170 170 182 194 187 197 195
169 188 201 274 220 286 313 299 344 310 325 324 329 331 331 335 350 358 18 24 44 110 176 192 195 193 195 198 194 187 184 187 188 186 185 187 186 183 175 174 175 178 178 185 189 189 188 178 177
250 243 229 290 267 248 276 271 291 294 328 335 335 340 335 336 346 353 22 39 46 76 146 189 195 197 194 195 191 187 184 186 183 183 193 192 184 179 178 174 174 172 183 185 174 178 177 168 182